Regional Weather Roundup
Issued by NWS

Home | Current Version | Previous Version | Text Only | Print | Product List | Glossary Off
Versions: 1 2 3 4 5 6 7 8 9 10 11 12 13 14 15 16 17 18 19 20 21 22 23 24 25 26 27 28 29 30 31 32 33 34 35 36 37 38 39 40 41 42 43 44 45 46 47 48 49 50

000
ASUS43 KIND 162209
RWRIN

WEATHER ROUNDUP FOR INDIANA
NATIONAL WEATHER SERVICE INDIANAPOLIS IN
600 PM EDT TUE SEP 16 2014

NOTE: "FAIR" INDICATES FEW OR NO CLOUDS BELOW 12,000 FEET WITH NO
SIGNIFICANT WEATHER AND/OR OBSTRUCTIONS TO VISIBILITY.

* - STATION DOES NOT REPORT WEATHER SUCH AS PRECIPITATION OR FOG.

+ - STATION NOT QUALITY CONTROLLED BY THE NATIONAL WEATHER SERVICE.
    USE DATA WITH CAUTION...ESPECIALLY DEWPOINT AND RELATIVE
    HUMIDITY OBSERVATIONS.

INZ001>003-010>013-019-020-162300-
NORTHWEST INDIANA

CITY           SKY/WX    TMP DP  RH WIND       PRES   REMARKS
GARY /AIRPORT/ MOSUNNY   64  46  52 NE6       30.11F
KNOX *+        FAIR      65  47  52 NW3       30.10F
LA PORTE +     MOSUNNY   63  47  55 W6        30.12F
MICHIGAN CITY+ SUNNY     61  41  48 CALM      30.12F
MONTICELLO +   SUNNY     65  48  53 N3        30.11S
RENSSELAER +   SUNNY     64  46  52 W3        30.11F
VALPARAISO     SUNNY     66  45  46 N3        30.11F

$$

LMZ046-743>745-162300-
SOUTHERN LAKE MICHIGAN

STATION/POSITION TIME  TEMP WIND        PRES
                       AIR  DIR/SP/G
                 (UTC) (F)  (DEG/KT/KT) (MB)
MICHIGAN CITY    2200   60   20/  5/  6   N/A

$$

INZ004-005-014>016-021>024-162300-
NORTH CENTRAL INDIANA

CITY           SKY/WX    TMP DP  RH WIND       PRES   REMARKS
ELKHART        MOSUNNY   64  46  52 NW7       30.11F
GOSHEN         MOSUNNY   65  45  48 NW7       30.10F
LOGANSPORT +   MOSUNNY   64  45  48 N6        30.12S
PERU/GRISSOM   SUNNY     66  47  51 NW6       30.11S
ROCHESTER +    SUNNY     66  45  45 NW6       30.11F
SOUTH BEND     SUNNY     64  47  53 NW12      30.12F
WARSAW +       SUNNY     63  45  51 CALM      30.11F

$$

INZ006>009-017-018-025>027-162300-
NORTHEAST INDIANA

CITY           SKY/WX    TMP DP  RH WIND       PRES   REMARKS
ANGOLA *+      MOSUNNY   63  54  72 NW5       30.10F
AUBURN +       SUNNY     64  39  39 W7        30.11S
FORT WAYNE     MOSUNNY   66  46  48 NW5       30.11F
HUNTINGTON +   SUNNY     64  46  53 W3        30.10F

$$

INZ028-029-035-036-043>045-051>053-162300-
WEST CENTRAL INDIANA

CITY           SKY/WX    TMP DP  RH WIND       PRES   REMARKS
GREENCASTLE +  CLOUDY    64  48  55 N6        30.11F
LAFAYETTE      SUNNY     66  46  48 NW9       30.11F
TERRE HAUTE    SUNNY     65  48  54 VRB5      30.11F

$$

INZ030>032-037>040-046>048-054>057-064-065-162300-
CENTRAL INDIANA

CITY           SKY/WX    TMP DP  RH WIND       PRES   REMARKS
CP ATTERBURY + CLOUDY    63  52  67 E3        30.13F
COLUMBUS       MOSUNNY   59  52  77 CALM      30.13F
FRANKFORT +    MOSUNNY   67  48  51 CALM      30.13S
INDIANAPOLIS   PTSUNNY   62  49  62 SE3       30.10F
-EAGLE CREEK   MOSUNNY   64  47  53 N3        30.11F
KOKOMO *+      SUNNY     66  45  45 NW3       30.11S
MARION +       MOSUNNY   63  44  50 NE3       30.12S
MT COMFORT *+  PTSUNNY   64  41  42 NW3       30.12F
SHELBYVILLE    PTSUNNY   65  50  58 VRB3      30.12F
ZIONSVILLE +   PTSUNNY   65  46  49 CALM      30.12S

$$

INZ033-034-041-042-049-050-058-059-162300-
EAST CENTRAL INDIANA

CITY           SKY/WX    TMP DP  RH WIND       PRES   REMARKS
MUNCIE         PTSUNNY   63  47  55 E3        30.12F

$$

INZ060-061-067>069-081>083-085>088-162300-
SOUTHWEST INDIANA

CITY           SKY/WX    TMP DP  RH WIND       PRES   REMARKS
EVANSVILLE     CLOUDY    65  51  60 NE7       30.12S
WASHINGTON +   CLOUDY    62  51  65 NE5       30.12F

$$

INZ062-063-066-070>080-084-089>092-162300-
SOUTH CENTRAL AND SOUTHEAST INDIANA

CITY           SKY/WX    TMP DP  RH WIND       PRES   REMARKS
BLOOMINGTON    CLOUDY    61  51  70 E6        30.12F

$$




USA.gov is the U.S. government's official web portal to all federal, state and local government web resources and services.